This is the latest recevied weather packets stored in our database for station/object KD7MPG-3. If no packets are shown the sender has not sent any weather packets the latest 10 day(s).
| Time | Temp. | Humidity | Pressure | Rain* | Wind** | Luminosity | Snow |
|---|---|---|---|---|---|---|---|
| 1787449304 | 21.67° C | 69% | 1026.3 hPa | 0 mm | - | - | - |
| 1787449002 | 21.67° C | 68% | 1026.2 hPa | 0 mm | - | - | - |
| 1787448704 | 22.22° C | 67% | 1026.3 hPa | 0 mm | - | - | - |
| 1787448402 | 22.22° C | 67% | 1026.2 hPa | 0 mm | - | - | - |
| 1787448100 | 22.22° C | 65% | 1026.2 hPa | 0 mm | - | - | - |
| 1787447801 | 22.78° C | 64% | 1026.3 hPa | 0 mm | - | - | - |
| 1787447495 | 23.33° C | 63% | 1026.1 hPa | 0 mm | - | - | - |
| 1787447196 | 23.33° C | 63% | 1026 hPa | 0 mm | - | - | - |
| 1787446894 | 23.33° C | 62% | 1026.1 hPa | 0 mm | - | - | - |
| 1787446598 | 23.89° C | 62% | 1026.1 hPa | 0 mm | - | - | - |
| 1787446294 | 23.89° C | 60% | 1026 hPa | 0 mm | - | - | - |
| 1787445995 | 24.44° C | 59% | 1026 hPa | 0 mm | - | - | - |
| 1787445692 | 24.44° C | 59% | 1026 hPa | 0 mm | - | - | - |
| 1787445392 | 24.44° C | 58% | 1026 hPa | 0 mm | - | - | - |
| 1787445098 | 25° C | 58% | 1025.9 hPa | 0 mm | - | - | - |
| 1787444789 | 25.56° C | 57% | 1025.8 hPa | 0 mm | - | - | - |
| 1787444488 | 25.56° C | 56% | 1025.8 hPa | 0 mm | - | - | - |
| 1787444188 | 26.11° C | 55% | 1025.7 hPa | 0 mm | - | - | - |
| 1787443882 | 26.11° C | 55% | 1025.7 hPa | 0 mm | - | - | - |
| 1787443582 | 26.11° C | 56% | 1025.6 hPa | 0 mm | - | - | - |
| 1787443282 | 25.56° C | 57% | 1025.7 hPa | 0 mm | - | - | - |
| 1787442982 | 25.56° C | 57% | 1025.6 hPa | 0 mm | - | - | - |
| 1787442682 | 25.56° C | 56% | 1025.7 hPa | 0 mm | - | - | - |
| 1787442382 | 25.56° C | 56% | 1025.6 hPa | 0 mm | - | - | - |
| 1787442077 | 25.56° C | 55% | 1025.6 hPa | 0 mm | - | - | - |
* Rain latest hour (hover to see other rain measurements)
** Current wind speed in m/s (hover to see current wind gust speed)